RYR233 EBBR-EDDH

Flight info

Callsign RYR233
Flight time N/A
Altitude 36000
Route NIK L191 VICOT N873 SPY/N0454F370 N873 ANDIK M105 RIBSO RIBSO7A
Aircraft B738/M-SDE2E3FGHIRWXY/LB1

Departure

Time 2026-04-30 20:27
Airport Brussels Airport (EBBR)

Arrival

Time N/A
Airport Hamburg Helmut Schmidt Airport (EDDH)
Time Latitude Longitude Altitude Speed Heading
2026-04-30 19:53 50.90282 4.48145 118 ft 0 kts 156°
2026-04-30 20:10 50.90297 4.48130 117 ft 2 kts 131°
2026-04-30 20:10 50.90305 4.48111 117 ft 2 kts 115°
2026-04-30 20:10 50.90310 4.48089 116 ft 2 kts 96°
2026-04-30 20:11 50.90305 4.48044 115 ft 0 kts 62°
2026-04-30 20:16 50.90306 4.48048 115 ft 1 kts 62°
2026-04-30 20:16 50.90315 4.48072 115 ft 2 kts 60°
2026-04-30 20:16 50.90327 4.48093 115 ft 2 kts 33°
2026-04-30 20:16 50.90348 4.48083 114 ft 4 kts 330°
2026-04-30 20:17 50.90380 4.48052 113 ft 6 kts 338°
2026-04-30 20:17 50.90421 4.48060 113 ft 6 kts 37°
2026-04-30 20:17 50.90447 4.48111 112 ft 6 kts 58°
2026-04-30 20:17 50.90467 4.48173 111 ft 6 kts 68°
2026-04-30 20:18 50.90481 4.48228 112 ft 4 kts 69°
2026-04-30 20:18 50.90490 4.48265 112 ft 3 kts 69°
2026-04-30 20:18 50.90497 4.48292 113 ft 2 kts 69°
2026-04-30 20:18 50.90507 4.48329 113 ft 6 kts 65°
2026-04-30 20:19 50.90541 4.48441 112 ft 15 kts 64°
2026-04-30 20:19 50.90578 4.48564 113 ft 20 kts 65°
2026-04-30 20:19 50.90671 4.48893 114 ft 25 kts 67°
2026-04-30 20:19 50.90741 4.49132 116 ft 23 kts 65°
2026-04-30 20:20 50.90806 4.49357 115 ft 22 kts 66°
2026-04-30 20:20 50.90851 4.49515 112 ft 0 kts 66°
2026-04-30 20:20 50.90858 4.49566 112 ft 9 kts 92°
2026-04-30 20:21 50.90808 4.49693 114 ft 17 kts 146°
2026-04-30 20:21 50.90668 4.49678 119 ft 23 kts 195°
2026-04-30 20:21 50.90500 4.49611 127 ft 24 kts 194°
2026-04-30 20:21 50.90335 4.49543 135 ft 24 kts 195°
2026-04-30 20:22 50.90170 4.49475 143 ft 24 kts 196°
2026-04-30 20:22 50.90004 4.49411 149 ft 24 kts 193°
2026-04-30 20:22 50.89836 4.49341 152 ft 26 kts 196°
2026-04-30 20:22 50.89687 4.49279 153 ft 13 kts 194°
2026-04-30 20:23 50.89662 4.49269 154 ft 3 kts 197°
2026-04-30 20:23 50.89612 4.49230 154 ft 13 kts 211°
2026-04-30 20:23 50.89491 4.49159 153 ft 7 kts 195°
2026-04-30 20:23 50.89479 4.49153 153 ft 7 kts 195°
2026-04-30 20:24 50.89369 4.49109 156 ft 25 kts 194°
2026-04-30 20:24 50.89257 4.49063 157 ft 1 kts 194°
2026-04-30 20:24 50.89238 4.49055 158 ft 8 kts 194°
2026-04-30 20:24 50.89225 4.49050 158 ft 0 kts 194°
2026-04-30 20:25 50.89162 4.49152 159 ft 8 kts 77°
2026-04-30 20:25 50.89165 4.49168 159 ft 0 kts 75°
2026-04-30 20:26 50.89166 4.49172 159 ft 1 kts 75°
2026-04-30 20:26 50.89418 4.50251 155 ft 110 kts 71°
2026-04-30 20:26 50.89746 4.51645 204 ft 151 kts 65°
2026-04-30 20:27 50.90628 4.54595 1212 ft 153 kts 75°
2026-04-30 20:27 50.91749 4.57458 2472 ft 182 kts 35°
2026-04-30 20:28 50.94514 4.56619 3327 ft 241 kts 322°
2026-04-30 20:28 50.96876 4.52450 4461 ft 266 kts 312°
2026-04-30 20:29 50.99316 4.48119 5871 ft 266 kts 314°
2026-04-30 20:30 51.03079 4.41664 5989 ft 263 kts 314°
2026-04-30 20:30 51.07004 4.34902 5989 ft 295 kts 313°
2026-04-30 20:31 51.11227 4.27598 6423 ft 306 kts 313°
2026-04-30 20:32 51.15456 4.20263 9039 ft 306 kts 313°
2026-04-30 20:32 51.18668 4.15625 10110 ft 326 kts 324°
2026-04-30 20:33 51.20534 4.13453 10549 ft 341 kts 326°
2026-04-30 20:33 51.24544 4.08895 11322 ft 370 kts 326°
2026-04-30 20:33 51.26757 4.06745 11993 ft 373 kts 335°
2026-04-30 20:34 51.31794 4.05048 12997 ft 386 kts
2026-04-30 20:34 51.37368 4.05040 13642 ft 413 kts
2026-04-30 20:35 51.40249 4.05078 14263 ft 419 kts
2026-04-30 20:35 51.43156 4.05091 14960 ft 422 kts
2026-04-30 20:35 51.49012 4.06170 16306 ft 426 kts 17°
2026-04-30 20:36 51.51786 4.07592 16943 ft 427 kts 23°
2026-04-30 20:36 51.54552 4.09421 17579 ft 431 kts 26°
2026-04-30 20:36 51.60009 4.13542 18841 ft 438 kts 28°
2026-04-30 20:37 51.62718 4.15644 19452 ft 442 kts 28°
2026-04-30 20:37 51.65503 4.17790 20065 ft 446 kts 28°
2026-04-30 20:37 51.68309 4.19927 20707 ft 449 kts 27°
2026-04-30 20:37 51.71128 4.22059 21284 ft 453 kts 27°
2026-04-30 20:38 51.73981 4.24207 21859 ft 457 kts 27°
2026-04-30 20:38 51.76901 4.26401 22474 ft 459 kts 27°
2026-04-30 20:38 51.79785 4.28570 23011 ft 463 kts 27°
2026-04-30 20:39 51.85629 4.32966 24113 ft 469 kts 27°
2026-04-30 20:39 51.88599 4.35205 24652 ft 473 kts 27°
2026-04-30 20:39 51.91591 4.37464 25166 ft 477 kts 26°
2026-04-30 20:40 51.97593 4.42003 26213 ft 483 kts 26°
2026-04-30 20:40 52.00632 4.44306 26855 ft 483 kts 26°
2026-04-30 20:40 52.03659 4.46602 27694 ft 479 kts 26°
2026-04-30 20:41 52.09643 4.51152 29079 ft 474 kts 26°
2026-04-30 20:41 52.12598 4.53404 29734 ft 472 kts 26°
2026-04-30 20:41 52.15545 4.55653 30357 ft 470 kts 26°
2026-04-30 20:41 52.18504 4.57916 30953 ft 469 kts 26°
2026-04-30 20:42 52.21442 4.60167 31520 ft 467 kts 26°
2026-04-30 20:42 52.24348 4.62396 32056 ft 466 kts 26°
2026-04-30 20:42 52.30185 4.66883 33089 ft 463 kts 27°
2026-04-30 20:43 52.33115 4.69140 33612 ft 462 kts 27°
2026-04-30 20:43 52.36017 4.71380 34100 ft 460 kts 27°
2026-04-30 20:43 52.38904 4.73611 34308 ft 464 kts 27°
2026-04-30 20:44 52.47604 4.80352 34324 ft 458 kts 27°
2026-04-30 20:45 52.57904 4.92137 34326 ft 454 kts 48°
2026-04-30 20:45 52.61863 5.00213 34328 ft 454 kts 54°
2026-04-30 20:46 52.69308 5.16838 34334 ft 454 kts 53°
2026-04-30 20:47 52.73651 5.27457 34337 ft 453 kts 63°
2026-04-30 20:48 52.76589 5.38832 34344 ft 454 kts 69°
2026-04-30 20:48 52.78703 5.48605 34350 ft 454 kts 70°
2026-04-30 20:49 52.80767 5.58404 34361 ft 454 kts 70°
2026-04-30 20:50 52.83860 5.73092 34363 ft 453 kts 71°
2026-04-30 20:50 52.85938 5.82952 34367 ft 453 kts 71°
2026-04-30 20:51 52.88001 5.92762 34370 ft 454 kts 71°
2026-04-30 20:51 52.91106 6.07590 34377 ft 455 kts 71°
2026-04-30 20:52 52.93156 6.17437 34381 ft 455 kts 70°
2026-04-30 20:53 52.96229 6.32285 34384 ft 454 kts 70°
2026-04-30 20:53 52.98253 6.42125 34389 ft 453 kts 70°
2026-04-30 20:54 53.01291 6.56987 34396 ft 452 kts 70°
2026-04-30 20:55 53.04297 6.71807 34395 ft 454 kts 71°
2026-04-30 20:55 53.06298 6.81731 34397 ft 455 kts 71°
2026-04-30 20:56 53.09275 6.96595 34398 ft 454 kts 71°
2026-04-30 20:57 53.12240 7.11508 34407 ft 453 kts 71°
2026-04-30 20:57 53.14195 7.21408 34410 ft 453 kts 71°
2026-04-30 20:58 53.17128 7.36361 34408 ft 455 kts 71°
2026-04-30 20:58 53.19074 7.46351 34414 ft 454 kts 71°
2026-04-30 20:59 53.21970 7.61322 34413 ft 455 kts 70°
2026-04-30 21:00 53.25810 7.81333 34417 ft 453 kts 71°
2026-04-30 21:01 53.28683 7.96432 34421 ft 456 kts 71°
2026-04-30 21:02 53.31538 8.11560 34418 ft 455 kts 71°
2026-04-30 21:02 53.33470 8.21570 34422 ft 454 kts 69°
2026-04-30 21:03 53.35706 8.31436 34433 ft 454 kts 66°
2026-04-30 21:03 53.38033 8.41238 34438 ft 454 kts 66°
2026-04-30 21:04 53.40343 8.51069 34437 ft 455 kts 66°
2026-04-30 21:04 53.44148 8.65543 34413 ft 447 kts 63°
2026-04-30 21:05 53.45434 8.70166 33709 ft 448 kts 63°
2026-04-30 21:05 53.46775 8.74990 32599 ft 456 kts 63°
2026-04-30 21:05 53.48105 8.79808 31711 ft 457 kts 64°
2026-04-30 21:05 53.49426 8.84642 30860 ft 458 kts 64°
2026-04-30 21:06 53.50732 8.89429 29963 ft 458 kts 63°
2026-04-30 21:06 53.52207 8.94191 28982 ft 458 kts 58°
2026-04-30 21:06 53.54140 8.98393 27799 ft 458 kts 42°
2026-04-30 21:06 53.56707 9.01290 27076 ft 451 kts 26°
2026-04-30 21:07 53.59674 9.02716 26296 ft 443 kts
2026-04-30 21:07 53.62683 9.02580 26195 ft 427 kts 353°
2026-04-30 21:07 53.65554 9.01427 25657 ft 423 kts 343°
2026-04-30 21:07 53.68180 8.99314 24863 ft 426 kts 328°
2026-04-30 21:08 53.70285 8.95800 23900 ft 435 kts 307°
2026-04-30 21:08 53.71634 8.91268 22574 ft 451 kts 291°
2026-04-30 21:08 53.72297 8.86054 21435 ft 460 kts 276°
2026-04-30 21:08 53.72051 8.80708 20765 ft 457 kts 258°
2026-04-30 21:09 53.70947 8.75804 20318 ft 446 kts 242°
2026-04-30 21:09 53.69132 8.71697 19791 ft 436 kts 222°
2026-04-30 21:09 53.66676 8.69058 19787 ft 411 kts 197°
2026-04-30 21:09 53.63938 8.68193 19460 ft 396 kts 180°
2026-04-30 21:10 53.61184 8.68496 18169 ft 403 kts 161°
2026-04-30 21:10 53.58821 8.70540 17928 ft 379 kts 137°
2026-04-30 21:10 53.57235 8.73894 17710 ft 356 kts 113°
2026-04-30 21:10 53.56728 8.77786 17529 ft 337 kts 88°
2026-04-30 21:11 53.57123 8.81574 17348 ft 322 kts 74°
2026-04-30 21:11 53.57799 8.85086 17232 ft 309 kts 71°
2026-04-30 21:11 53.58496 8.88411 17148 ft 295 kts 70°
2026-04-30 21:11 53.59168 8.91576 17070 ft 282 kts 70°
2026-04-30 21:12 53.59809 8.94597 16937 ft 272 kts 70°
2026-04-30 21:12 53.60436 8.97556 16584 ft 271 kts 70°
2026-04-30 21:12 53.61072 9.00558 16240 ft 269 kts 70°
2026-04-30 21:12 53.61696 9.03506 15881 ft 267 kts 70°
2026-04-30 21:13 53.62312 9.06417 15539 ft 266 kts 71°
2026-04-30 21:13 53.62974 9.09296 15182 ft 265 kts 65°
2026-04-30 21:13 53.63933 9.12011 15022 ft 272 kts 54°
2026-04-30 21:13 53.65185 9.14346 15118 ft 272 kts 45°
2026-04-30 21:14 53.66620 9.16388 15045 ft 268 kts 40°
2026-04-30 21:14 53.68140 9.18269 14571 ft 272 kts 38°
2026-04-30 21:14 53.69676 9.20079 14168 ft 272 kts 38°
2026-04-30 21:14 53.71202 9.21873 13919 ft 267 kts 38°
2026-04-30 21:15 53.72713 9.23669 13598 ft 264 kts 38°
2026-04-30 21:15 53.74210 9.25467 13250 ft 263 kts 38°
2026-04-30 21:15 53.75690 9.27253 12963 ft 259 kts 38°
2026-04-30 21:15 53.77081 9.29031 12847 ft 247 kts 44°
2026-04-30 21:16 53.78166 9.31211 12475 ft 245 kts 62°
2026-04-30 21:16 53.78761 9.33901 12167 ft 242 kts 77°
2026-04-30 21:16 53.79001 9.36706 11832 ft 242 kts 87°
2026-04-30 21:16 53.78798 9.39480 11487 ft 243 kts 105°
2026-04-30 21:17 53.78088 9.42059 11162 ft 244 kts 118°
2026-04-30 21:17 53.77110 9.44412 10832 ft 246 kts 129°
2026-04-30 21:17 53.75704 9.46032 10487 ft 253 kts 155°
2026-04-30 21:17 53.73945 9.46521 10145 ft 259 kts 176°
2026-04-30 21:18 53.72163 9.46035 9807 ft 264 kts 197°
2026-04-30 21:18 53.70554 9.44558 9505 ft 265 kts 208°
2026-04-30 21:18 53.68909 9.43357 9159 ft 257 kts 183°
2026-04-30 21:18 53.67182 9.43612 8843 ft 247 kts 159°
2026-04-30 21:19 53.65565 9.44529 8527 ft 245 kts 156°
2026-04-30 21:19 53.63963 9.45390 8215 ft 244 kts 159°
2026-04-30 21:19 53.62306 9.46123 7904 ft 244 kts 161°
2026-04-30 21:19 53.60677 9.46770 7608 ft 242 kts 162°
2026-04-30 21:20 53.59033 9.47408 7302 ft 241 kts 162°
2026-04-30 21:20 53.57422 9.48039 7016 ft 239 kts 162°
2026-04-30 21:20 53.55826 9.48668 6711 ft 237 kts 162°
2026-04-30 21:20 53.54214 9.49306 6416 ft 236 kts 162°
2026-04-30 21:21 53.52626 9.49930 6120 ft 235 kts 163°
2026-04-30 21:21 53.50996 9.50232 5802 ft 239 kts 180°
2026-04-30 21:21 53.48204 9.47357 5206 ft 246 kts 228°
2026-04-30 21:22 53.47136 9.45157 4922 ft 245 kts 227°